Regional Weather Roundup
Issued by NWS San Diego, CA

Home | Current Version | Previous Version | Text Only | Print | Product List | Glossary On
Versions: 1 2 3 4 5 6 7 8 9 10 11 12 13 14 15 16 17 18 19 20 21 22 23 24 25 26 27 28 29 30 31 32 33 34 35 36 37 38 39 40 41 42 43 44 45 46 47 48 49 50
000
ASUS46 KSGX 200710
RWRSGX

SAN DIEGO HOURLY WEATHER ROUNDUP
NATIONAL WEATHER SERVICE SAN DIEGO CA
1200 AM PDT SAT SEP 20 2014

NOTE: "FAIR" INDICATES FEW OR NO CLOUDS BELOW 12,000 FEET WITH NO
SIGNIFICANT WEATHER AND/OR OBSTRUCTIONS TO VISIBILITY.

CAZ042-043-060-061-PZZ750-775-200800-

GREATER SAN DIEGO AREA

CITY           SKY/WX    TMP DP  RH WIND       PRES   REMARKS
LINDBERGH FLD  CLOUDY    71  62  73 NW5       29.92R
POINT LOMA       N/A     69  63  80 NW6         N/A
NATIONAL CITY    N/A     71  64  78 CALM      29.91S
CHULA VISTA      N/A     70  65  82 W2        29.84R
IMPERIAL BEACH CLOUDY    71  64  78 NW8       29.91S
BROWN FIELD    CLOUDY    68  62  81 CALM      29.92R
MIRAMAR MCAS   MOCLDY    69  61  75 W3        29.91S
MONTGOMERY FLD CLOUDY    70  62  76 W5        29.91S

$$

NORTH SAN DIEGO COUNTY

CITY           SKY/WX    TMP DP  RH WIND       PRES   REMARKS
CAMP PENDLETON CLEAR     64  57  78 CALM      29.90R
OCEANSIDE AP   PTCLDY    67  60  78 CALM      29.90R
OCEANSIDE HBR    N/A     69  64  83 N2        29.93R
VISTA            N/A     67  62  84 CALM      29.88S
CARLSBAD       CLEAR     69  62  78 SE3       29.90R
DEL MAR          N/A     69  65  86 CALM      29.93R
FALLBROOK        N/A     65  65 100 CALM      29.90S
ESCONDIDO        N/A     67  62  83 CALM      29.93R
SAN MARCOS       N/A     67  62  84 CALM      29.88R
POWAY            N/A     67  62  83 CALM      29.91S

$$

EAST SAN DIEGO COUNTY

CITY           SKY/WX    TMP DP  RH WIND       PRES   REMARKS
RAMONA         CLEAR     60  58  92 W3        29.93S
SANTEE LAKES     N/A     66  62  86 CALM      29.92R
LA MESA          N/A     68  64  86 CALM      29.85R
JAMUL            N/A     65  61  87 CALM      29.89S
MT. LAGUNA OBS   N/A     59  40  49 SE1       29.70S
CAMPO            N/A     59  54  83 NE5       29.93S

$$

ORANGE COUNTY AND THE LOS ANGELES BASIN

CITY           SKY/WX    TMP DP  RH WIND       PRES   REMARKS
JOHN WAYNE AP  CLEAR     72  62  71 CALM      29.89R
LAGUNA BEACH     N/A    N/A  18   0 CALM      29.85R
LAKE FOREST FR   N/A     64  58  81 CALM      29.80S
SANTA ANA        N/A     68  63  83 CALM      29.84S
HUNTINGTON BCH   N/A     67  64  90 CALM      29.92R
LOS ALAMITOS   FAIR      68  63  82 CALM      29.89S
FULLERTON      CLEAR     70  60  70 CALM      29.88S
LONG BEACH     CLEAR     69  63  81 CALM      29.89R
L.A. AP        PTCLDY    68  63  84 W5        29.90R
L.A. DOWNTOWN  CLEAR     67  61  81 CALM      29.89R

$$

THE INLAND EMPIRE

CITY           SKY/WX    TMP DP  RH WIND       PRES   REMARKS
CORONA         CLEAR     65  60  83 CALM      29.91R
CHINO          CLEAR     67  62  84 NW3       29.91S
ONTARIO        PTCLDY    68  60  75 SW6       29.91R
RIVERSIDE AP   CLEAR     69  60  73 W5        29.91R
RIV CYN CREST    N/A     69  67  95 CALM      29.88R
MORENO VALLEY    N/A     66  62  88 CALM      29.12R
MARCH ARB      CLEAR     67  59  77 CALM      29.92S
HORSETHIEF CYN   N/A     65  56  72 SW3       29.91R
PERRIS           N/A     67  60  78 CALM      29.89R
MENIFEE          N/A     67  62  84 S1        29.96R
HEMET EAST       N/A     65  56  74 CALM      29.88R
FRENCH VALLEY  FAIR      64  59  82 S5        29.93R
TEMECULA         N/A     66  62  87 S5        29.88S

$$

SAN BERNARDINO AND RIVERSIDE COUNTY MOUNTAINS

CITY           SKY/WX    TMP DP  RH WIND       PRES   REMARKS
BIG BEAR AP    CLEAR     45  36  70 CALM      30.18S
PINE COVE        N/A     58  47  66 CALM      29.78S

$$

SOUTHERN DESERT INCLUDING THE COACHELLA VALLEY

CITY           SKY/WX    TMP DP  RH WIND       PRES   REMARKS
PALM SPRINGS   CLEAR     83  58  42 NW5       29.81R
THOUSAND PALMS   N/A     82  59  44 W12       29.75R
PALM DESERT      N/A     82  61  49 CALM      27.85S
THERMAL        CLEAR     84  59  42 NW9       29.74R
BLYTHE         CLEAR     87  48  25 SW5       29.76S
IMPERIAL AP    CLEAR     82  61  48 W8        29.74R
EL CENTRO NAS  CLEAR     86  58  38 W9        29.74R
YUMA AZ        CLEAR     88  67  49 S8        29.76S

$$

UPPER DESERT

CITY           SKY/WX    TMP DP  RH WIND       PRES   REMARKS
VICTORVILLE AP CLEAR     68  54  60 SW3       29.96R
HESPERIA         N/A     66  53  62 CALM      29.94S
APPLE VALLEY     N/A     71  52  51 CALM      30.03R
PALMDALE       CLEAR     68  55  63 CALM      29.94R
LANCASTER      CLEAR     68  52  56 W9        29.93R
EDWARDS AFB    CLEAR     70  55  57 SW9       29.90R
DAGGETT        CLEAR     76  44  32 SW8       29.89R
29 PALMS N     CLEAR     76  52  43 CALM      29.94S
NEEDLES        CLEAR     87  45  23 S5        29.80R

$$

REGIONAL REPORTS

CITY           SKY/WX    TMP DP  RH WIND       PRES   REMARKS
SANTA BARBARA  CLEAR     67  61  81 E5        29.87R
SANDBERG       CLEAR     63  52  67 W10       30.05S
MT. WILSON       N/A     55  52  88 E8          N/A
LAS VEGAS NV   PTCLDY    83  33  16 SW8       29.85R
PHOENIX AZ     CLEAR     88  60  38 CALM      29.79S
TIJUANA        CLOUDY    68  61  77 CALM      29.93R

$$

OFFSHORE ISLANDS

CITY           SKY/WX    TMP DP  RH WIND       PRES   REMARKS
CATALINA ARPT  CLOUDY    61  59  93 SW5       29.94R
SAN NICOLAS IS CLOUDY   N/A N/A N/A NW12      29.91R

$$

MARINE AND OFFSHORE BUOY REPORTS

STATION/POSITION SKY/WX   TEMP    WIND        PRES    SWELL
                          AIR SEA DIR/SP/G            HT/PER/DIR
                          (F)     (DEG/KT/KT) (MB)    (FT/S/D)
TANNER BANKS               68 71  310/ 10/ 12 1013.2R   5/310/11
S CLEMENTE BASIN           69 74  300/ 12/ 14 1012.7R   5/210/13
SAN NICOLAS IS.               69                N/A     3/280/11
SO. S. ROSA ISLA           67 69  320/ 14/ 16 1011.9R   5/15
W. S. BARBARA CH           63 64  320/ 12/ 14 1011.4S   5/300/10
M. S. BARBARA CH                  260/ 12       N/A
S. MONICA BASIN            69 72  320/ 10/ 12 1011.6F   3/240/15
S PEDRO CHANNEL               73                N/A     2/200/13
DANA POINT                    71                N/A     2/200/14
CMP PENDLETON NS              71                N/A     2/220/15
OCEANSIDE OFFSHR              73                N/A     2/210/15
TORREY PINES OTR              72                N/A     3/220/14
LA JOLLA 1                 71 73   CALM  /  1 1012.7S
MISSION BAY BUOY              72                N/A     2/220/15
SAN DIEGO BAY                 77              1013.3S

$$



USA.gov is the U.S. government's official web portal to all federal, state and local government web resources and services.